<?xml version="1.0" encoding="UTF-8" standalone="yes"?>
<gpx xmlns="http://www.topografix.com/GPX/1/1" xmlns:gpxx="http://www.garmin.com/xmlschemas/GpxExtensions/v3" xmlns:rcxx="http://www.routeconverter.de/xmlschemas/RouteCatalogExtensions/1.0" version="1.1" creator="Generated by Christian Pesch's RouteConverter. See http://www.routeconverter.de">
    <trk>
        <name>Neue Wegpunktliste (rev)</name>
        <trkseg>
            <trkpt lon="8.4105384349823" lat="48.948604511376054">
                <ele>143.0</ele>
                <time>2008-11-02T06:00:12.046+01:00</time>
                <name>Ettlingen, Stadt</name>
            </trkpt>
            <trkpt lon="8.410441875457764" lat="48.94827334779541">
                <ele>143.0</ele>
                <time>2008-11-02T06:00:12.046+01:00</time>
                <name>Ettlingen, Stadt</name>
            </trkpt>
            <trkpt lon="8.411182165145874" lat="48.94814651860799">
                <ele>143.0</ele>
                <time>2008-11-02T06:00:12.046+01:00</time>
                <name>Ettlingen, Stadt</name>
            </trkpt>
            <trkpt lon="8.411085605621338" lat="48.94767442935493">
                <ele>144.0</ele>
                <time>2008-11-02T06:00:12.046+01:00</time>
                <name>Ettlingen, Stadt</name>
            </trkpt>
            <trkpt lon="8.412458896636963" lat="48.94744895231473">
                <ele>148.0</ele>
                <time>2008-11-02T06:00:12.046+01:00</time>
                <name>Ettlingen, Stadt</name>
            </trkpt>
            <trkpt lon="8.412694931030273" lat="48.947554644804185">
                <ele>148.0</ele>
                <time>2008-11-02T06:00:12.046+01:00</time>
                <name>Ettlingen, Stadt</name>
            </trkpt>
            <trkpt lon="8.413338661193848" lat="48.94765329092568">
                <ele>149.0</ele>
                <time>2008-11-02T06:00:12.046+01:00</time>
                <name>Ettlingen, Stadt</name>
            </trkpt>
            <trkpt lon="8.415194749832153" lat="48.94702618011817">
                <ele>158.0</ele>
                <time>2008-11-02T06:00:12.046+01:00</time>
                <name>Hotel Watthalden</name>
            </trkpt>
            <trkpt lon="8.415838479995728" lat="48.94703322635082">
                <ele>161.0</ele>
                <time>2008-11-02T06:00:12.046+01:00</time>
                <name>Hotel Watthalden</name>
            </trkpt>
            <trkpt lon="8.417093753814697" lat="48.94716710458168">
                <ele>168.0</ele>
                <time>2008-11-02T06:00:12.046+01:00</time>
                <name>Hotel Watthalden</name>
            </trkpt>
            <trkpt lon="8.418595790863037" lat="48.946842977720614">
                <ele>174.0</ele>
                <time>2008-11-02T06:00:12.046+01:00</time>
                <name>Hotel Watthalden</name>
            </trkpt>
            <trkpt lon="8.41975450515747" lat="48.94650475614265">
                <ele>183.0</ele>
                <time>2008-11-02T06:00:12.046+01:00</time>
                <name>Hotel Watthalden</name>
            </trkpt>
            <trkpt lon="8.420698642730713" lat="48.94639906142938">
                <ele>190.0</ele>
                <time>2008-11-02T06:00:12.046+01:00</time>
                <name>Hotel Watthalden</name>
            </trkpt>
            <trkpt lon="8.420848846435547" lat="48.946335644493985">
                <ele>190.0</ele>
                <time>2008-11-02T06:00:12.046+01:00</time>
                <name>Hotel Watthalden</name>
            </trkpt>
            <trkpt lon="8.42177152633667" lat="48.946765468811485">
                <ele>207.0</ele>
                <time>2008-11-02T06:00:12.046+01:00</time>
                <name>Hotel Watthalden</name>
            </trkpt>
            <trkpt lon="8.422383069992065" lat="48.94699094894013">
                <ele>222.0</ele>
                <time>2008-11-02T06:00:12.046+01:00</time>
                <name>Hedwigshof</name>
            </trkpt>
            <trkpt lon="8.422662019729614" lat="48.94716005836796">
                <ele>201.0</ele>
                <time>2008-11-02T06:00:12.046+01:00</time>
                <name>Hedwigshof</name>
            </trkpt>
            <trkpt lon="8.423112630844116" lat="48.94736439816198">
                <ele>221.0</ele>
                <time>2008-11-02T06:00:12.046+01:00</time>
                <name>Hedwigshof</name>
            </trkpt>
            <trkpt lon="8.424797058105469" lat="48.94776602911147">
                <ele>242.0</ele>
                <time>2008-11-02T06:00:12.046+01:00</time>
                <name>Hedwigshof</name>
            </trkpt>
            <trkpt lon="8.425301313400269" lat="48.94789285926603">
                <ele>242.0</ele>
                <time>2008-11-02T06:00:12.046+01:00</time>
                <name>Hedwigshof</name>
            </trkpt>
            <trkpt lon="8.42602014541626" lat="48.947801259742306">
                <ele>250.0</ele>
                <time>2008-11-02T06:00:12.046+01:00</time>
                <name>Hedwigshof</name>
            </trkpt>
            <trkpt lon="8.42699646949768" lat="48.94742076761307">
                <ele>251.0</ele>
                <time>2008-11-02T06:00:12.046+01:00</time>
                <name>Hedwigshof</name>
            </trkpt>
            <trkpt lon="8.427393436431885" lat="48.947174150794424">
                <ele>257.0</ele>
                <time>2008-11-02T06:00:12.046+01:00</time>
                <name>Hedwigshof</name>
            </trkpt>
            <trkpt lon="8.427586555480957" lat="48.946969810221354">
                <ele>275.0</ele>
                <time>2008-11-02T06:00:12.046+01:00</time>
                <name>Hedwigshof</name>
            </trkpt>
            <trkpt lon="8.427844047546387" lat="48.94692753275692">
                <ele>275.0</ele>
                <time>2008-11-02T06:00:12.046+01:00</time>
                <name>Hedwigshof</name>
            </trkpt>
            <trkpt lon="8.427951335906982" lat="48.94700504141433">
                <ele>280.0</ele>
                <time>2008-11-02T06:00:12.046+01:00</time>
                <name>Hedwigshof</name>
            </trkpt>
            <trkpt lon="8.428348302841187" lat="48.94773784458891">
                <ele>271.0</ele>
                <time>2008-11-02T06:00:12.046+01:00</time>
                <name>Hedwigshof</name>
            </trkpt>
            <trkpt lon="8.428369760513306" lat="48.94803378128185">
                <ele>260.0</ele>
                <time>2008-11-02T06:00:12.046+01:00</time>
                <name>Hedwigshof</name>
            </trkpt>
            <trkpt lon="8.428541421890259" lat="48.94835790040793">
                <ele>260.0</ele>
                <time>2008-11-02T06:00:12.046+01:00</time>
                <name>Hedwigshof</name>
            </trkpt>
            <trkpt lon="8.429206609725952" lat="48.94869610942522">
                <ele>270.0</ele>
                <time>2008-11-02T06:00:12.046+01:00</time>
                <name>Hedwigshof</name>
            </trkpt>
            <trkpt lon="8.43001127243042" lat="48.94887930501909">
                <ele>266.0</ele>
                <time>2008-11-02T06:00:12.046+01:00</time>
                <name>Hedwigshof</name>
            </trkpt>
            <trkpt lon="8.430708646774292" lat="48.94909772965578">
                <ele>274.0</ele>
                <time>2008-11-02T06:00:12.046+01:00</time>
                <name>Hedwigshof</name>
            </trkpt>
            <trkpt lon="8.431459665298462" lat="48.94936547468024">
                <ele>283.0</ele>
                <time>2008-11-02T06:00:12.046+01:00</time>
                <name>Hedwigshof</name>
            </trkpt>
            <trkpt lon="8.432146310806274" lat="48.94986573127057">
                <ele>287.0</ele>
                <time>2008-11-02T06:00:12.046+01:00</time>
                <name>Hedwigshof</name>
            </trkpt>
            <trkpt lon="8.432629108428955" lat="48.94999960190181">
                <ele>287.0</ele>
                <time>2008-11-02T06:00:12.046+01:00</time>
                <name>Hedwigshof</name>
            </trkpt>
            <trkpt lon="8.433036804199219" lat="48.95020393006749">
                <ele>295.0</ele>
                <time>2008-11-02T06:00:12.046+01:00</time>
                <name>Hedwigshof</name>
            </trkpt>
            <trkpt lon="8.433337211608887" lat="48.95013347217385">
                <ele>295.0</ele>
                <time>2008-11-02T06:00:12.046+01:00</time>
                <name>Hedwigshof</name>
            </trkpt>
            <trkpt lon="8.433315753936768" lat="48.949879822932886">
                <ele>295.0</ele>
                <time>2008-11-02T06:00:12.046+01:00</time>
                <name>Hedwigshof</name>
            </trkpt>
            <trkpt lon="8.4330153465271" lat="48.94955923663077">
                <ele>295.0</ele>
                <time>2008-11-02T06:00:12.046+01:00</time>
                <name>Hedwigshof</name>
            </trkpt>
            <trkpt lon="8.433476686477661" lat="48.94973890613073">
                <ele>295.0</ele>
                <time>2008-11-02T06:00:12.046+01:00</time>
                <name>Hedwigshof</name>
            </trkpt>
            <trkpt lon="8.434088230133057" lat="48.9496614017199">
                <ele>296.0</ele>
                <time>2008-11-02T06:00:12.046+01:00</time>
                <name>Hedwigshof</name>
            </trkpt>
            <trkpt lon="8.43500018119812" lat="48.94947116311017">
                <ele>307.0</ele>
                <time>2008-11-02T06:00:12.046+01:00</time>
                <name>Hedwigshof</name>
            </trkpt>
            <trkpt lon="8.435450792312622" lat="48.94922807938663">
                <ele>307.0</ele>
                <time>2008-11-02T06:00:12.046+01:00</time>
                <name>Hedwigshof</name>
            </trkpt>
            <trkpt lon="8.435788750648499" lat="48.94900965532055">
                <ele>311.0</ele>
                <time>2008-11-02T06:00:12.046+01:00</time>
                <name>Hedwigshof</name>
            </trkpt>
            <trkpt lon="8.43698501586914" lat="48.94817117986411">
                <ele>319.0</ele>
                <time>2008-11-02T06:00:12.046+01:00</time>
                <name>Hedwigshof</name>
            </trkpt>
            <trkpt lon="8.437054753303528" lat="48.948100719099955">
                <ele>319.0</ele>
                <time>2008-11-02T06:00:12.046+01:00</time>
                <name>Hedwigshof</name>
            </trkpt>
            <trkpt lon="8.437274694442749" lat="48.94793161286006">
                <ele>319.0</ele>
                <time>2008-11-02T06:00:12.046+01:00</time>
                <name>Hedwigshof</name>
            </trkpt>
            <trkpt lon="8.437537550926208" lat="48.947684998566196">
                <ele>310.0</ele>
                <time>2008-11-02T06:00:12.046+01:00</time>
                <name>Hedwigshof</name>
            </trkpt>
            <trkpt lon="8.437591195106506" lat="48.94799855081521">
                <ele>310.0</ele>
                <time>2008-11-02T06:00:12.046+01:00</time>
                <name>Hedwigshof</name>
            </trkpt>
            <trkpt lon="8.437859416007996" lat="48.94819584110806">
                <ele>310.0</ele>
                <time>2008-11-02T06:00:12.046+01:00</time>
                <name>Hedwigshof</name>
            </trkpt>
            <trkpt lon="8.438304662704468" lat="48.94843540684353">
                <ele>310.0</ele>
                <time>2008-11-02T06:00:12.046+01:00</time>
                <name>Hedwigshof</name>
            </trkpt>
            <trkpt lon="8.438830375671387" lat="48.94875952336074">
                <ele>300.0</ele>
                <time>2008-11-02T06:00:12.046+01:00</time>
                <name>Hedwigshof</name>
            </trkpt>
            <trkpt lon="8.439297080039978" lat="48.94896033362491">
                <ele>301.0</ele>
                <time>2008-11-02T06:00:12.046+01:00</time>
                <name>Hedwigshof</name>
            </trkpt>
            <trkpt lon="8.439817428588867" lat="48.949115344504165">
                <ele>301.0</ele>
                <time>2008-11-02T06:00:12.046+01:00</time>
                <name>Hedwigshof</name>
            </trkpt>
            <trkpt lon="8.44048798084259" lat="48.94930206151482">
                <ele>303.0</ele>
                <time>2008-11-02T06:00:12.046+01:00</time>
                <name>Hedwigshof</name>
            </trkpt>
            <trkpt lon="8.441839814186096" lat="48.94955219075483">
                <ele>313.0</ele>
                <time>2008-11-02T06:00:12.046+01:00</time>
                <name>Edelberg</name>
            </trkpt>
            <trkpt lon="8.442719578742981" lat="48.94976356659985">
                <ele>301.0</ele>
                <time>2008-11-02T06:00:12.046+01:00</time>
                <name>Edelberg</name>
            </trkpt>
            <trkpt lon="8.443025350570679" lat="48.949774135368585">
                <ele>301.0</ele>
                <time>2008-11-02T06:00:12.046+01:00</time>
                <name>Edelberg</name>
            </trkpt>
            <trkpt lon="8.443787097930908" lat="48.949978464457594">
                <ele>313.0</ele>
                <time>2008-11-02T06:00:12.046+01:00</time>
                <name>Edelberg</name>
            </trkpt>
            <trkpt lon="8.44472050666809" lat="48.95040121164036">
                <ele>315.0</ele>
                <time>2008-11-02T06:00:12.046+01:00</time>
                <name>Edelberg</name>
            </trkpt>
            <trkpt lon="8.445530533790588" lat="48.950904980688996">
                <ele>312.0</ele>
                <time>2008-11-02T06:00:12.046+01:00</time>
                <name>Edelberg</name>
            </trkpt>
            <trkpt lon="8.445444703102112" lat="48.95071474682081">
                <ele>312.0</ele>
                <time>2008-11-02T06:00:12.046+01:00</time>
                <name>Edelberg</name>
            </trkpt>
            <trkpt lon="8.445047736167908" lat="48.95009472028994">
                <ele>315.0</ele>
                <time>2008-11-02T06:00:12.046+01:00</time>
                <name>Edelberg</name>
            </trkpt>
            <trkpt lon="8.44497799873352" lat="48.94921046457804">
                <ele>321.0</ele>
                <time>2008-11-02T06:00:12.046+01:00</time>
                <name>Edelberg</name>
            </trkpt>
            <trkpt lon="8.444173336029053" lat="48.94880179927301">
                <ele>321.0</ele>
                <time>2008-11-02T06:00:12.046+01:00</time>
                <name>Edelberg</name>
            </trkpt>
            <trkpt lon="8.4434974193573" lat="48.94840017666044">
                <ele>322.0</ele>
                <time>2008-11-02T06:00:12.046+01:00</time>
                <name>Edelberg</name>
            </trkpt>
            <trkpt lon="8.443036079406738" lat="48.948202887175526">
                <ele>311.0</ele>
                <time>2008-11-02T06:00:12.046+01:00</time>
                <name>Edelberg</name>
            </trkpt>
            <trkpt lon="8.4419846534729" lat="48.947850582583655">
                <ele>319.0</ele>
                <time>2008-11-02T06:00:12.046+01:00</time>
                <name>Edelberg</name>
            </trkpt>
            <trkpt lon="8.441780805587769" lat="48.947660337069756">
                <time>2008-11-02T06:00:12.046+01:00</time>
                <name>Neue Position</name>
            </trkpt>
            <trkpt lon="8.441684246063232" lat="48.94734325960139">
                <ele>318.0</ele>
                <time>2008-11-02T06:00:12.046+01:00</time>
                <name>Edelberg</name>
            </trkpt>
            <trkpt lon="8.44174861907959" lat="48.94714596593755">
                <ele>307.0</ele>
                <time>2008-11-02T06:00:12.046+01:00</time>
                <name>Edelberg</name>
            </trkpt>
            <trkpt lon="8.442049026489258" lat="48.94693457900349">
                <ele>307.0</ele>
                <time>2008-11-02T06:00:12.046+01:00</time>
                <name>Edelberg</name>
            </trkpt>
            <trkpt lon="8.443068265914917" lat="48.94652589505842">
                <ele>318.0</ele>
                <time>2008-11-02T06:00:12.046+01:00</time>
                <name>Edelberg</name>
            </trkpt>
            <trkpt lon="8.44347596168518" lat="48.946356783481406">
                <time>2008-11-02T06:00:12.046+01:00</time>
                <name>Neue Position</name>
            </trkpt>
            <trkpt lon="8.444055318832397" lat="48.94622994942252">
                <time>2008-11-02T06:00:12.046+01:00</time>
                <name>Neue Position</name>
            </trkpt>
            <trkpt lon="8.44472050666809" lat="48.94620881038139">
                <time>2008-11-02T06:00:12.046+01:00</time>
                <name>Neue Position</name>
            </trkpt>
            <trkpt lon="8.444902896881104" lat="48.9461665322722">
                <time>2008-11-02T06:00:12.046+01:00</time>
                <name>Neue Position</name>
            </trkpt>
            <trkpt lon="8.444843888282776" lat="48.94613482366681">
                <ele>304.0</ele>
                <time>2008-11-02T06:00:12.046+01:00</time>
                <name>Edelberg</name>
            </trkpt>
            <trkpt lon="8.444151878356934" lat="48.94583535251108">
                <ele>313.0</ele>
                <time>2008-11-02T06:00:12.046+01:00</time>
                <name>Edelberg</name>
            </trkpt>
            <trkpt lon="8.443862199783325" lat="48.945722609963276">
                <ele>313.0</ele>
                <time>2008-11-02T06:00:12.046+01:00</time>
                <name>Edelberg</name>
            </trkpt>
            <trkpt lon="8.443561792373657" lat="48.94565214574153">
                <ele>319.0</ele>
                <time>2008-11-02T06:00:12.046+01:00</time>
                <name>Edelberg</name>
            </trkpt>
            <trkpt lon="8.444151878356934" lat="48.94541961310386">
                <ele>306.0</ele>
                <time>2008-11-02T06:00:12.046+01:00</time>
                <name>Edelberg</name>
            </trkpt>
            <trkpt lon="8.443433046340942" lat="48.94496159110304">
                <time>2008-11-02T06:00:12.046+01:00</time>
                <name>Neue Position</name>
            </trkpt>
            <trkpt lon="8.4424889087677" lat="48.9446163102003">
                <ele>317.0</ele>
                <time>2008-11-02T06:00:12.046+01:00</time>
                <name>Edelberg</name>
            </trkpt>
            <trkpt lon="8.441426753997803" lat="48.94427102690859">
                <ele>314.0</ele>
                <time>2008-11-02T06:00:12.046+01:00</time>
                <name>Hedwigshof</name>
            </trkpt>
            <trkpt lon="8.441040515899658" lat="48.944031441179774">
                <ele>323.0</ele>
                <time>2008-11-02T06:00:12.046+01:00</time>
                <name>Hedwigshof</name>
            </trkpt>
            <trkpt lon="8.440820574760437" lat="48.9436544436599">
                <ele>323.0</ele>
                <time>2008-11-02T06:00:12.046+01:00</time>
                <name>Hedwigshof</name>
            </trkpt>
            <trkpt lon="8.441051244735718" lat="48.943016712399874">
                <ele>323.0</ele>
                <time>2008-11-02T06:00:12.046+01:00</time>
                <name>Hedwigshof</name>
            </trkpt>
            <trkpt lon="8.441453576087952" lat="48.942551621480376">
                <ele>313.0</ele>
                <time>2008-11-02T06:00:12.046+01:00</time>
                <name>Hedwigshof</name>
            </trkpt>
            <trkpt lon="8.44172716140747" lat="48.94223803500498">
                <ele>313.0</ele>
                <time>2008-11-02T06:00:12.046+01:00</time>
                <name>Edelberg</name>
            </trkpt>
            <trkpt lon="8.441716432571411" lat="48.941484010021746">
                <ele>311.0</ele>
                <time>2008-11-02T06:00:12.046+01:00</time>
                <name>Wattkopf</name>
            </trkpt>
            <trkpt lon="8.441625237464905" lat="48.94098014585631">
                <ele>300.0</ele>
                <time>2008-11-02T06:00:12.046+01:00</time>
                <name>Wattkopf</name>
            </trkpt>
            <trkpt lon="8.441534042358398" lat="48.940557318855085">
                <ele>300.0</ele>
                <time>2008-11-02T06:00:12.046+01:00</time>
                <name>Wattkopf</name>
            </trkpt>
            <trkpt lon="8.441453576087952" lat="48.94013801187479">
                <ele>275.0</ele>
                <time>2008-11-02T06:00:12.046+01:00</time>
                <name>Wattkopf</name>
            </trkpt>
            <trkpt lon="8.44124972820282" lat="48.939764508573">
                <ele>290.0</ele>
                <time>2008-11-02T06:00:12.046+01:00</time>
                <name>Wattkopf</name>
            </trkpt>
            <trkpt lon="8.44049870967865" lat="48.93875321673657">
                <ele>250.0</ele>
                <time>2008-11-02T06:00:12.046+01:00</time>
                <name>Wattkopf</name>
            </trkpt>
            <trkpt lon="8.43972623348236" lat="48.93810132786285">
                <ele>264.0</ele>
                <time>2008-11-02T06:00:12.046+01:00</time>
                <name>Wattkopf</name>
            </trkpt>
            <trkpt lon="8.439302444458008" lat="48.9379216164601">
                <ele>272.0</ele>
                <time>2008-11-02T06:00:12.046+01:00</time>
                <name>Wattkopf</name>
            </trkpt>
            <trkpt lon="8.438760638237" lat="48.937801808498826">
                <ele>250.0</ele>
                <time>2008-11-02T06:00:12.046+01:00</time>
                <name>Wattkopf</name>
            </trkpt>
            <trkpt lon="8.437870144844055" lat="48.937755999496446">
                <ele>245.0</ele>
                <time>2008-11-02T06:00:12.046+01:00</time>
                <name>Wattkopf</name>
            </trkpt>
            <trkpt lon="8.437424898147583" lat="48.93769609535298">
                <time>2008-11-02T06:00:12.046+01:00</time>
                <name>Neue Position</name>
            </trkpt>
            <trkpt lon="8.436834812164307" lat="48.937738380638194">
                <ele>241.0</ele>
                <time>2008-11-02T06:00:12.046+01:00</time>
                <name>Wattkopf</name>
            </trkpt>
            <trkpt lon="8.436470031738281" lat="48.93782999863323">
                <ele>241.0</ele>
                <time>2008-11-02T06:00:12.046+01:00</time>
                <name>Wattkopf</name>
            </trkpt>
            <trkpt lon="8.435901403427124" lat="48.938066090383906">
                <ele>261.0</ele>
                <time>2008-11-02T06:00:12.046+01:00</time>
                <name>Wattkopf</name>
            </trkpt>
            <trkpt lon="8.435611724853516" lat="48.938118946593015">
                <ele>261.0</ele>
                <time>2008-11-02T06:00:12.046+01:00</time>
                <name>Wattkopf</name>
            </trkpt>
            <trkpt lon="8.435364961624146" lat="48.938034376631585">
                <ele>270.0</ele>
                <time>2008-11-02T06:00:12.046+01:00</time>
                <name>Wattkopf</name>
            </trkpt>
            <trkpt lon="8.435225486755371" lat="48.937928663978276">
                <ele>270.0</ele>
                <time>2008-11-02T06:00:12.046+01:00</time>
                <name>Wattkopf</name>
            </trkpt>
            <trkpt lon="8.434882164001465" lat="48.93756923928245">
                <ele>239.0</ele>
                <time>2008-11-02T06:00:12.046+01:00</time>
                <name>Wattkopf</name>
            </trkpt>
            <trkpt lon="8.434581756591797" lat="48.937354287982586">
                <ele>239.0</ele>
                <time>2008-11-02T06:00:12.046+01:00</time>
                <name>Wattkopf</name>
            </trkpt>
            <trkpt lon="8.434061408042908" lat="48.93711466904904">
                <ele>207.0</ele>
                <time>2008-11-02T06:00:12.046+01:00</time>
                <name>Wattkopf</name>
            </trkpt>
            <trkpt lon="8.433047533035278" lat="48.93682219143895">
                <ele>213.0</ele>
                <time>2008-11-02T06:00:12.046+01:00</time>
                <name>Wattkopf</name>
            </trkpt>
            <trkpt lon="8.431813716888428" lat="48.93657552224291">
                <ele>213.0</ele>
                <time>2008-11-02T06:00:12.046+01:00</time>
                <name>Wattkopf</name>
            </trkpt>
            <trkpt lon="8.429700136184692" lat="48.936399329213764">
                <ele>206.0</ele>
                <time>2008-11-02T06:00:12.046+01:00</time>
                <name>Wattkopf</name>
            </trkpt>
            <trkpt lon="8.429700136184692" lat="48.936540283686845">
                <ele>206.0</ele>
                <time>2008-11-02T06:00:12.046+01:00</time>
                <name>Wattkopf</name>
            </trkpt>
            <trkpt lon="8.429474830627441" lat="48.936603713069864">
                <ele>198.0</ele>
                <time>2008-11-02T06:00:12.046+01:00</time>
                <name>Wattkopf</name>
            </trkpt>
            <trkpt lon="8.42900276184082" lat="48.93665304697873">
                <ele>198.0</ele>
                <time>2008-11-02T06:00:12.046+01:00</time>
                <name>Wattkopf</name>
            </trkpt>
            <trkpt lon="8.428305387496948" lat="48.936829239112356">
                <ele>194.0</ele>
                <time>2008-11-02T06:00:12.046+01:00</time>
                <name>Wattkopf</name>
            </trkpt>
            <trkpt lon="8.427318334579468" lat="48.936836286784754">
                <ele>0.0</ele>
                <time>2008-11-02T06:00:12.046+01:00</time>
                <name>Neue Position</name>
            </trkpt>
            <trkpt lon="8.427071571350098" lat="48.93689971579168">
                <ele>0.0</ele>
                <time>2008-11-02T06:00:12.046+01:00</time>
                <name>Neue Position</name>
            </trkpt>
            <trkpt lon="8.427093029022217" lat="48.93699133532603">
                <time>2008-11-02T06:00:12.046+01:00</time>
                <name>Neue Position</name>
            </trkpt>
            <trkpt lon="8.42725396156311" lat="48.93697724002401">
                <ele>0.0</ele>
                <time>2008-11-02T06:00:12.046+01:00</time>
                <name>Neue Position</name>
            </trkpt>
            <trkpt lon="8.427919149398804" lat="48.936998382975545">
                <ele>0.0</ele>
                <time>2008-11-02T06:00:12.046+01:00</time>
                <name>Neue Position</name>
            </trkpt>
            <trkpt lon="8.42850923538208" lat="48.937061811776495">
                <ele>0.0</ele>
                <time>2008-11-02T06:00:12.046+01:00</time>
                <name>Neue Position</name>
            </trkpt>
            <trkpt lon="8.428949117660522" lat="48.93716047863997">
                <ele>194.0</ele>
                <time>2008-11-02T06:00:12.046+01:00</time>
                <name>Wattkopf</name>
            </trkpt>
            <trkpt lon="8.429582118988037" lat="48.93719571675824">
                <ele>192.0</ele>
                <time>2008-11-02T06:00:12.046+01:00</time>
                <name>Wattkopf</name>
            </trkpt>
            <trkpt lon="8.429957628250122" lat="48.93724505008201">
                <time>2008-11-02T06:00:12.046+01:00</time>
                <name>Neue Position</name>
            </trkpt>
            <trkpt lon="8.43074083328247" lat="48.937287335749296">
                <ele>192.0</ele>
                <time>2008-11-02T06:00:12.046+01:00</time>
                <name>Wattkopf</name>
            </trkpt>
            <trkpt lon="8.431169986724854" lat="48.937273240530864">
                <ele>188.0</ele>
                <time>2008-11-02T06:00:12.046+01:00</time>
                <name>Wattkopf</name>
            </trkpt>
            <trkpt lon="8.431813716888428" lat="48.93737895457222">
                <time>2008-11-02T06:00:12.046+01:00</time>
                <name>Neue Position</name>
            </trkpt>
            <trkpt lon="8.43250036239624" lat="48.9374282877149">
                <ele>188.0</ele>
                <time>2008-11-02T06:00:12.046+01:00</time>
                <name>Wattkopf</name>
            </trkpt>
            <trkpt lon="8.433369398117065" lat="48.937526953854">
                <ele>0.0</ele>
                <time>2008-11-02T06:00:12.046+01:00</time>
                <name>Neue Position</name>
            </trkpt>
            <trkpt lon="8.433948755264282" lat="48.937639714917">
                <ele>188.0</ele>
                <time>2008-11-02T06:00:12.046+01:00</time>
                <name>Wattkopf</name>
            </trkpt>
            <trkpt lon="8.434281349182129" lat="48.93782295110111">
                <ele>0.0</ele>
                <time>2008-11-02T06:00:12.046+01:00</time>
                <name>Neue Position</name>
            </trkpt>
            <trkpt lon="8.434324264526367" lat="48.937942759011655">
                <ele>0.0</ele>
                <time>2008-11-02T06:00:12.046+01:00</time>
                <name>Neue Position</name>
            </trkpt>
            <trkpt lon="8.433959484100342" lat="48.93799209159713">
                <ele>184.0</ele>
                <time>2008-11-02T06:00:12.046+01:00</time>
                <name>Hotel Watthalden</name>
            </trkpt>
            <trkpt lon="8.433294296264648" lat="48.93793571149546">
                <ele>218.0</ele>
                <time>2008-11-02T06:00:12.046+01:00</time>
                <name>Hotel Watthalden</name>
            </trkpt>
            <trkpt lon="8.432650566101074" lat="48.9380061866126">
                <ele>234.0</ele>
                <time>2008-11-02T06:00:12.046+01:00</time>
                <name>Wattkopf</name>
            </trkpt>
            <trkpt lon="8.432167768478394" lat="48.93809075662178">
                <time>2008-11-02T06:00:12.046+01:00</time>
                <name>Neue Position</name>
            </trkpt>
            <trkpt lon="8.43152403831482" lat="48.93810485160939">
                <ele>234.0</ele>
                <time>2008-11-02T06:00:12.046+01:00</time>
                <name>Wattkopf</name>
            </trkpt>
            <trkpt lon="8.430424332619213" lat="48.938295133190266">
                <time>2008-11-02T06:00:12.046+01:00</time>
                <name>Neue Position</name>
            </trkpt>
            <trkpt lon="8.429582118988037" lat="48.9383867505256">
                <ele>234.0</ele>
                <time>2008-11-02T06:00:12.046+01:00</time>
                <name>Hotel Watthalden</name>
            </trkpt>
            <trkpt lon="8.42927634716034" lat="48.938495985927666">
                <ele>0.0</ele>
                <time>2008-11-02T06:00:12.046+01:00</time>
                <name>Neue Position</name>
            </trkpt>
            <trkpt lon="8.430225849151611" lat="48.93860522109065">
                <ele>0.0</ele>
                <time>2008-11-02T06:00:12.046+01:00</time>
                <name>Neue Position</name>
            </trkpt>
            <trkpt lon="8.430418968200684" lat="48.938703884903354">
                <ele>0.0</ele>
                <time>2008-11-02T06:00:12.046+01:00</time>
                <name>Neue Position</name>
            </trkpt>
            <trkpt lon="8.43050479888916" lat="48.93880959591486">
                <ele>228.0</ele>
                <time>2008-11-02T06:00:12.046+01:00</time>
                <name>Hotel Watthalden</name>
            </trkpt>
            <trkpt lon="8.429152965545654" lat="48.93883073809027">
                <ele>234.0</ele>
                <time>2008-11-02T06:00:12.046+01:00</time>
                <name>Wattkopf</name>
            </trkpt>
            <trkpt lon="8.428058624267578" lat="48.938781406333696">
                <ele>279.0</ele>
                <time>2008-11-02T06:00:12.046+01:00</time>
                <name>Wattkopf</name>
            </trkpt>
            <trkpt lon="8.426728248596191" lat="48.93864750560568">
                <ele>280.0</ele>
                <time>2008-11-02T06:00:12.046+01:00</time>
                <name>Hotel Watthalden</name>
            </trkpt>
            <trkpt lon="8.42627763748169" lat="48.938696837494646">
                <time>2008-11-02T06:00:12.046+01:00</time>
                <name>Neue Position</name>
            </trkpt>
            <trkpt lon="8.425827026367188" lat="48.93882369069947">
                <ele>278.0</ele>
                <time>2008-11-02T06:00:12.046+01:00</time>
                <name>Hotel Watthalden</name>
            </trkpt>
            <trkpt lon="8.42525839805603" lat="48.93904920671205">
                <ele>297.0</ele>
                <time>2008-11-02T06:00:12.046+01:00</time>
                <name>Hotel Watthalden</name>
            </trkpt>
            <trkpt lon="8.42475414276123" lat="48.93937338419502">
                <ele>297.0</ele>
                <time>2008-11-02T06:00:12.046+01:00</time>
                <name>Hotel Watthalden</name>
            </trkpt>
            <trkpt lon="8.423960208892822" lat="48.94038818705162">
                <ele>300.0</ele>
                <time>2008-11-02T06:00:12.046+01:00</time>
                <name>Hotel Watthalden</name>
            </trkpt>
            <trkpt lon="8.423144817352295" lat="48.940937863317394">
                <ele>294.0</ele>
                <time>2008-11-02T06:00:12.046+01:00</time>
                <name>Hotel Watthalden</name>
            </trkpt>
            <trkpt lon="8.42226505279541" lat="48.942009009929606">
                <ele>281.0</ele>
                <time>2008-11-02T06:00:12.046+01:00</time>
                <name>Hotel Watthalden</name>
            </trkpt>
            <trkpt lon="8.421578407287598" lat="48.94275598014549">
                <ele>270.0</ele>
                <time>2008-11-02T06:00:12.046+01:00</time>
                <name>Hotel Watthalden</name>
            </trkpt>
            <trkpt lon="8.421106338500977" lat="48.94370024724887">
                <ele>253.0</ele>
                <time>2008-11-02T06:00:12.046+01:00</time>
                <name>Hotel Watthalden</name>
            </trkpt>
            <trkpt lon="8.420913219451904" lat="48.944376726129164">
                <ele>253.0</ele>
                <time>2008-11-02T06:00:12.046+01:00</time>
                <name>Hotel Watthalden</name>
            </trkpt>
            <trkpt lon="8.421299457550049" lat="48.944686775884676">
                <ele>250.0</ele>
                <time>2008-11-02T06:00:12.046+01:00</time>
                <name>Hotel Watthalden</name>
            </trkpt>
            <trkpt lon="8.422908782958984" lat="48.945687377864836">
                <ele>248.0</ele>
                <time>2008-11-02T06:00:12.046+01:00</time>
                <name>Hotel Watthalden</name>
            </trkpt>
            <trkpt lon="8.425312042236328" lat="48.94757578327521">
                <ele>242.0</ele>
                <time>2008-11-02T06:00:12.046+01:00</time>
                <name>Hedwigshof</name>
            </trkpt>
            <trkpt lon="8.426041603088379" lat="48.94771670618653">
                <ele>250.0</ele>
                <time>2008-11-02T06:00:12.046+01:00</time>
                <name>Hedwigshof</name>
            </trkpt>
            <trkpt lon="8.425934314727783" lat="48.947787167492955">
                <ele>250.0</ele>
                <time>2008-11-02T06:00:12.046+01:00</time>
                <name>Hedwigshof</name>
            </trkpt>
            <trkpt lon="8.425076007843018" lat="48.947829444229036">
                <ele>242.0</ele>
                <time>2008-11-02T06:00:12.046+01:00</time>
                <name>Hedwigshof</name>
            </trkpt>
            <trkpt lon="8.423101902008057" lat="48.94735030578925">
                <ele>221.0</ele>
                <time>2008-11-02T06:00:12.046+01:00</time>
                <name>Hedwigshof</name>
            </trkpt>
            <trkpt lon="8.42226505279541" lat="48.946969810221354">
                <ele>222.0</ele>
                <time>2008-11-02T06:00:12.046+01:00</time>
                <name>Hedwigshof</name>
            </trkpt>
            <trkpt lon="8.42099905014038" lat="48.94639201510722">
                <ele>190.0</ele>
                <time>2008-11-02T06:00:12.046+01:00</time>
                <name>Hotel Watthalden</name>
            </trkpt>
            <trkpt lon="8.420934677124023" lat="48.94634973715326">
                <ele>190.0</ele>
                <time>2008-11-02T06:00:12.046+01:00</time>
                <name>Hotel Watthalden</name>
            </trkpt>
            <trkpt lon="8.420730829238892" lat="48.946441339341554">
                <ele>190.0</ele>
                <time>2008-11-02T06:00:12.046+01:00</time>
                <name>Hotel Watthalden</name>
            </trkpt>
            <trkpt lon="8.419711589813232" lat="48.94650475614265">
                <ele>183.0</ele>
                <time>2008-11-02T06:00:12.046+01:00</time>
                <name>Hotel Watthalden</name>
            </trkpt>
            <trkpt lon="8.417093753814697" lat="48.94715301215325">
                <ele>168.0</ele>
                <time>2008-11-02T06:00:12.046+01:00</time>
                <name>Hotel Watthalden</name>
            </trkpt>
            <trkpt lon="8.415387868881226" lat="48.94704027258245">
                <ele>158.0</ele>
                <time>2008-11-02T06:00:12.046+01:00</time>
                <name>Hotel Watthalden</name>
            </trkpt>
            <trkpt lon="8.414690494537354" lat="48.94716005836796">
                <ele>155.0</ele>
                <time>2008-11-02T06:00:12.046+01:00</time>
                <name>Hotel Watthalden</name>
            </trkpt>
            <trkpt lon="8.413081169128418" lat="48.94762510633944">
                <ele>149.0</ele>
                <time>2008-11-02T06:00:12.046+01:00</time>
                <name>Ettlingen, Stadt</name>
            </trkpt>
            <trkpt lon="8.41254472732544" lat="48.94744895231473">
                <ele>148.0</ele>
                <time>2008-11-02T06:00:12.046+01:00</time>
                <name>Ettlingen, Stadt</name>
            </trkpt>
            <trkpt lon="8.41201901435852" lat="48.94754759864517">
                <ele>145.0</ele>
                <time>2008-11-02T06:00:12.046+01:00</time>
                <name>Ettlingen, Stadt</name>
            </trkpt>
            <trkpt lon="8.412555456161499" lat="48.949330245153824">
                <ele>145.0</ele>
                <time>2008-11-02T06:00:12.046+01:00</time>
                <name>Ettlingen, Stadt</name>
            </trkpt>
            <trkpt lon="8.409948348999023" lat="48.9496890634274">
                <ele>137.0</ele>
                <time>2008-11-02T06:00:12.046+01:00</time>
                <name>Ettlingen</name>
            </trkpt>
            <trkpt lon="8.409948348999023" lat="48.9486890634274">
                <ele>142.0</ele>
                <time>2008-11-02T06:00:12.046+01:00</time>
                <name>Ettlingen, Stadt</name>
            </trkpt>
            <trkpt lon="8.410624265670776" lat="48.94863974141487">
                <ele>143.0</ele>
                <time>2008-11-02T06:00:12.046+01:00</time>
                <name>Ettlingen, Stadt</name>
            </trkpt>
        </trkseg>
    </trk>
</gpx>
